Location: Malvern Link
(52.1333°N, 2.3000°W)
Time: 11:46:29
(UTC+00:00)

SPROUT - Pass Details

Date: 09 July 2022
Orbit: 588 x 598 km, 97.9° (Epoch: 18 August)

Event Time Altitude Azimuth Distance (km) Brightness Sun altitude
Exits shadow 23:58:42 14° 125° (SE) 1,677 ? -15.4°
Maximum altitude 00:01:47 33° 65° (ENE) 998 ? -15.4°
Drops below altitude 10° 00:05:33 10° 1° (N) 1,936 ? -15.5°
Sets 00:07:52 0° 352° (N) 2,844 ? -15.5°
